UAL219 KORD-PHNL

Flight info

Callsign UAL219
Flight time N/A
Altitude 38000
Route MYKIE MONNY SMIDD KP78G HORML KD81Y SALON KU78S WOLEN KU72M ROOHZ KU63I JENSA KO54E ALCOA/N0468F400 R463 APACK MAGGI3
Aircraft B772/H-SDE2E3FGHIJ5LORVWXY/LB1D1

Departure

Time 2026-05-05 12:30
Airport Chicago O'Hare International Airport (KORD)

Arrival

Time N/A
Airport Daniel K. Inouye International Airport (PHNL)
Time Latitude Longitude Altitude Speed Heading
2026-05-05 12:14 41.98194 -87.90667 675 ft 0 kts 157°
2026-05-05 12:22 41.98207 -87.90674 675 ft 3 kts 157°
2026-05-05 12:23 41.98224 -87.90684 673 ft 3 kts 157°
2026-05-05 12:23 41.98241 -87.90693 671 ft 3 kts 157°
2026-05-05 12:23 41.98256 -87.90702 673 ft 0 kts 157°
2026-05-05 12:26 41.98254 -87.90701 671 ft 2 kts 155°
2026-05-05 12:26 41.98246 -87.90608 674 ft 20 kts 81°
2026-05-05 12:26 41.98256 -87.90363 674 ft 28 kts 90°
2026-05-05 12:26 41.98281 -87.90107 674 ft 28 kts 87°
2026-05-05 12:27 41.98292 -87.89848 675 ft 28 kts 86°
2026-05-05 12:27 41.98298 -87.89587 674 ft 28 kts 92°
2026-05-05 12:27 41.98290 -87.89327 674 ft 28 kts 92°
2026-05-05 12:27 41.98285 -87.89072 672 ft 16 kts 90°
2026-05-05 12:28 41.98287 -87.88966 672 ft 2 kts 81°
2026-05-05 12:28 41.98297 -87.88943 672 ft 4 kts 50°
2026-05-05 12:28 41.98366 -87.88958 668 ft 16 kts 311°
2026-05-05 12:28 41.98387 -87.89047 669 ft 0 kts 275°
2026-05-05 12:29 41.98387 -87.89052 669 ft 0 kts 275°
2026-05-05 12:29 41.98388 -87.89056 669 ft 0 kts 275°
2026-05-05 12:29 41.98389 -87.89078 670 ft 10 kts 274°
2026-05-05 12:29 41.98392 -87.89343 671 ft 63 kts 271°
2026-05-05 12:30 41.98393 -87.90416 670 ft 162 kts 270°
2026-05-05 12:30 41.98376 -87.92213 1009 ft 204 kts 270°
2026-05-05 12:30 41.98331 -87.94130 2273 ft 202 kts 271°
2026-05-05 12:30 41.98258 -87.95914 3882 ft 180 kts 270°
2026-05-05 12:31 41.98415 -87.97545 4871 ft 186 kts 292°
2026-05-05 12:31 41.98967 -87.99273 5386 ft 218 kts 291°
2026-05-05 12:31 41.99529 -88.01196 6471 ft 219 kts 289°
2026-05-05 12:31 42.00065 -88.03167 7263 ft 229 kts 287°
2026-05-05 12:32 42.00593 -88.05234 8093 ft 237 kts 285°
2026-05-05 12:32 42.01110 -88.07362 9022 ft 242 kts 283°
2026-05-05 12:32 42.01616 -88.09527 9996 ft 244 kts 282°
2026-05-05 12:32 42.02118 -88.11757 10690 ft 258 kts 282°
2026-05-05 12:33 42.02652 -88.14210 10921 ft 288 kts 282°
2026-05-05 12:33 42.03222 -88.16878 11346 ft 309 kts 282°
2026-05-05 12:33 42.03821 -88.19692 12186 ft 316 kts 282°
2026-05-05 12:33 42.04427 -88.22562 13146 ft 321 kts 281°
2026-05-05 12:34 42.05036 -88.25472 14087 ft 324 kts 281°
2026-05-05 12:34 42.05646 -88.28404 15024 ft 327 kts 281°
2026-05-05 12:34 42.06259 -88.31366 15931 ft 330 kts 281°
2026-05-05 12:34 42.06877 -88.34367 16826 ft 334 kts 282°
2026-05-05 12:35 42.07500 -88.37398 17746 ft 338 kts 281°
2026-05-05 12:35 42.08122 -88.40436 18548 ft 342 kts 281°
2026-05-05 12:35 42.08756 -88.43537 19376 ft 345 kts 281°
2026-05-05 12:35 42.09394 -88.46661 20236 ft 347 kts 281°
2026-05-05 12:36 42.10035 -88.49803 21110 ft 349 kts 281°
2026-05-05 12:36 42.10680 -88.52975 21960 ft 352 kts 281°
2026-05-05 12:36 42.11330 -88.56174 22783 ft 356 kts 280°
2026-05-05 12:36 42.11987 -88.59414 23570 ft 360 kts 280°
2026-05-05 12:37 42.12649 -88.62683 24229 ft 363 kts 280°
2026-05-05 12:37 42.13318 -88.65992 24908 ft 366 kts 280°
2026-05-05 12:37 42.13990 -88.69313 25577 ft 369 kts 280°
2026-05-05 12:37 42.14658 -88.72628 26211 ft 372 kts 280°
2026-05-05 12:38 42.15330 -88.76011 26849 ft 375 kts 279°
2026-05-05 12:38 42.15799 -88.79469 27459 ft 375 kts 274°
2026-05-05 12:38 42.16073 -88.82986 28072 ft 378 kts 272°
2026-05-05 12:38 42.16186 -88.86544 28672 ft 380 kts 268°
2026-05-05 12:39 42.16124 -88.90112 29259 ft 382 kts 267°
2026-05-05 12:39 42.16032 -88.93701 29834 ft 385 kts 266°
2026-05-05 12:39 42.15931 -88.97319 30342 ft 387 kts 266°
2026-05-05 12:39 42.15829 -89.00918 30761 ft 390 kts 267°
2026-05-05 12:40 42.15729 -89.04577 31207 ft 391 kts 267°
2026-05-05 12:40 42.15630 -89.08238 31771 ft 389 kts 267°
2026-05-05 12:40 42.15533 -89.11871 32394 ft 386 kts 268°
2026-05-05 12:40 42.15437 -89.15486 32982 ft 384 kts 268°
2026-05-05 12:41 42.15342 -89.19083 33551 ft 383 kts 268°
2026-05-05 12:41 42.15246 -89.22660 34054 ft 382 kts 268°
2026-05-05 12:41 42.15149 -89.26247 34375 ft 384 kts 268°
2026-05-05 12:41 42.15051 -89.29850 34630 ft 387 kts 268°
2026-05-05 12:42 42.14951 -89.33480 34909 ft 388 kts 268°
2026-05-05 12:42 42.14849 -89.37130 35200 ft 390 kts 268°
2026-05-05 12:42 42.14746 -89.40788 35489 ft 391 kts 268°
2026-05-05 12:42 42.14641 -89.44460 35785 ft 392 kts 268°
2026-05-05 12:43 42.14536 -89.48102 36062 ft 394 kts 268°
2026-05-05 12:43 42.14428 -89.51800 36342 ft 395 kts 269°
2026-05-05 12:43 42.14319 -89.55493 36615 ft 396 kts 269°
2026-05-05 12:43 42.14208 -89.59206 36895 ft 396 kts 269°
2026-05-05 12:44 42.14096 -89.62922 37168 ft 397 kts 269°
2026-05-05 12:44 42.13983 -89.66643 37442 ft 398 kts 269°
2026-05-05 12:44 42.13868 -89.70372 37702 ft 398 kts 269°
2026-05-05 12:44 42.13753 -89.74065 37826 ft 401 kts 269°
2026-05-05 12:45 42.13516 -89.81584 37896 ft 401 kts 269°
2026-05-05 12:45 42.13273 -89.89092 37919 ft 399 kts 269°
2026-05-05 12:46 42.13027 -89.96551 37937 ft 398 kts 269°
2026-05-05 12:46 42.12777 -90.03993 37945 ft 398 kts 269°
2026-05-05 12:47 42.12524 -90.11402 37942 ft 398 kts 269°
2026-05-05 12:47 42.12264 -90.18857 37943 ft 398 kts 269°